time ,SS(A),SS(B),CCN(A),CCN(B)
20:00:00,0.00,0.00,0,0
20:00:01,0.00,0.00,0,0
20:00:02,0.00,0.07,0,0
20:00:03,0.00,0.07,0,0
20:00:04,0.07,0.07,2.860187025,0
20:00:05,0.08,0.07,0,0
20:00:06,0.07,0.07,0,0
20:00:07,0.08,0.07,5.646542595,0
20:00:08,0.08,0.07,0,0
20:00:09,0.08,0.07,0,0
20:00:10,0.08,0.07,5.649457859,0
20:00:11,0.08,0.07,0,0
20:00:12,0.08,0.08,0,0
20:00:13,0.08,0.07,11.34383686,0
20:00:14,0.08,0.07,5.69082557,0
20:00:15,0.08,0.07,8.53757093,0
20:00:16,0.08,0.07,11.42284467,0
20:00:17,0.08,0.07,0,0
20:00:18,0.08,0.07,5.693244918,0
20:00:19,0.07,0.07,2.854329689,0
20:00:20,0.07,0.07,14.17402855,0
20:00:21,0.08,0.07,8.58512525,0
20:00:22,0.08,0.07,5.672634977,0
20:00:23,0.07,0.07,14.32364058,0
20:00:24,0.07,0.07,5.708214895,0
20:00:25,0.07,0.07,17.02772075,0
20:00:26,0.07,0.07,5.754664537,0
20:00:27,0.07,0.07,11.41045812,0
20:00:28,0.07,0.07,11.52599566,0
20:00:29,0.08,0.07,11.44097058,0
20:00:30,0.07,0.07,8.606979398,0
20:00:31,0.07,0.07,11.52457882,0
20:00:32,0.07,0.07,11.45312271,2.859479021
20:00:33,0.07,0.07,2.885015533,0
20:00:34,0.07,0.07,5.682344126,2.843671994
20:00:35,0.07,0.07,0,5.695582988
20:00:36,0.08,0.07,0,2.958585757
20:00:37,0.07,0.07,14.41328623,5.676695252
20:00:38,0.08,0.07,14.4371119,2.850510214
20:00:39,0.07,0.07,8.613349803,2.841458913
20:00:40,0.07,0.08,11.47886165,0
20:00:41,0.08,0.07,5.702719993,5.819442332
20:00:42,0.07,0.07,8.646580683,2.843519164
20:00:43,0.07,0.07,11.67408505,0
20:00:44,0.07,0.07,0,2.865066749
20:00:45,0.07,0.07,8.656899638,5.808792597
20:00:46,0.07,0.07,2.875765375,2.866854194
20:00:47,0.07,0.07,5.805211015,5.749800566
20:00:48,0.07,0.07,8.688522943,8.60584835
20:00:49,0.07,0.07,11.51363194,2.856827859
20:00:50,0.08,0.07,23.08680214,8.764867749
20:00:51,0.07,0.08,11.5995418,11.45867742
20:00:52,0.07,0.07,14.49343065,11.58438976
20:00:53,0.08,0.07,17.40274466,2.865249948
20:00:54,0.07,0.07,14.44322521,8.61800407
20:00:55,0.07,0.07,8.687010044,11.78220039
20:00:56,0.07,0.07,11.5469332,5.785034096
20:00:57,0.07,0.07,11.67494256,20.30804279
20:00:58,0.07,0.07,14.41299884,5.770312794
20:00:59,0.07,0.07,20.21298958,26.92587626
20:01:00,0.07,0.07,25.98441868,17.26174748
20:01:01,0.08,0.07,11.60416125,8.933825237
20:01:02,0.07,0.07,17.5520405,11.63612081
20:01:03,0.07,0.07,20.19176162,11.59454569
20:01:04,0.07,0.07,17.50789551,17.34503137
20:01:05,0.07,0.07,14.63125308,20.24794399
20:01:06,0.07,0.07,23.29325862,5.798760066
20:01:07,0.07,0.07,17.39524123,14.91946941
20:01:08,0.07,0.07,8.703733044,8.696016968
20:01:09,0.07,0.07,23.4910352,23.18420078
20:01:10,0.07,0.07,23.22916071,17.30684938
20:01:11,0.07,0.07,34.99389951,20.39495499
20:01:12,0.07,0.07,20.52935907,20.42890402
20:01:13,0.07,0.07,23.47247291,14.54349115
20:01:14,0.07,0.07,23.56158684,14.59512315
20:01:15,0.07,0.07,14.63092642,6.030853782
20:01:16,0.07,0.07,38.07510157,8.873537993
20:01:17,0.07,0.07,23.66967834,11.7268186
20:01:18,0.07,0.07,17.73805361,5.869218601
20:01:19,0.07,0.07,20.80833772,5.850326438
20:01:20,0.07,0.07,14.6833768,15.00062056
20:01:21,0.07,0.07,14.95332053,2.943341361
20:01:22,0.07,0.07,11.86624912,23.66877258
20:01:23,0.07,0.07,29.29684665,5.989371184
20:01:24,0.07,0.07,5.919024721,14.79425804
20:01:25,0.07,0.07,11.75267198,8.923300599
20:01:26,0.07,0.07,14.9138291,32.51806115
20:01:27,0.07,0.07,8.847970457,20.90048794
20:01:28,0.07,0.07,17.735889,36.00813753
20:01:29,0.07,0.07,23.9270975,29.90887187
20:01:30,0.07,0.07,14.96275217,17.77554986
20:01:31,0.07,0.07,39.16559875,15.33392365
20:01:32,0.07,0.07,20.81623118,23.62162836
20:01:33,0.07,0.07,15.08466162,18.35450215
20:01:34,0.07,0.07,14.9150132,37.23285615
20:01:35,0.07,0.07,18.09450936,17.86495516
20:01:36,0.07,0.07,30.00931305,23.83131752
20:01:37,0.07,0.07,29.91722748,17.72877624
20:01:38,0.07,0.07,21.19325557,20.87771154
20:01:39,0.07,0.07,29.90436735,26.72958862
20:01:40,0.07,0.07,24.0623269,11.90073712
20:01:41,0.07,0.07,15.20746428,29.86192986
20:01:42,0.07,0.07,15.06647617,20.85512229
20:01:43,0.07,0.07,39.44034229,11.92630359
20:01:44,0.07,0.07,18.0149265,24.03594022
20:01:45,0.07,0.07,12.15855773,21.03617042
20:01:46,0.07,0.07,15.04876193,23.95544396
20:01:47,0.07,0.07,18.25325762,15.04872469
20:01:48,0.07,0.07,24.15763155,15.11198251
20:01:49,0.07,0.07,21.17372784,23.9792401
20:01:50,0.07,0.07,21.38520041,12.07877867
20:01:51,0.07,0.07,33.03669486,36.10387492
20:01:52,0.07,0.07,15.38697385,18.24145873
20:01:53,0.07,0.07,36.29556471,18.16795552
20:01:54,0.07,0.07,18.27035379,25.00874304
20:01:55,0.07,0.07,21.39129696,27.19865624
20:01:56,0.07,0.07,33.38561142,9.064887314
20:01:57,0.07,0.07,30.44897321,27.33707326
20:01:58,0.07,0.07,18.27567599,21.20361434
20:01:59,0.07,0.07,36.57216386,34.10916875
20:02:00,0.07,0.07,18.40882695,18.22123146
20:02:01,0.07,0.07,9.215847339,15.20662449
20:02:02,0.07,0.07,9.218789597,21.25839562
20:02:03,0.07,0.07,24.5586275,15.39038484
20:02:04,0.07,0.07,12.14958331,27.54328912
20:02:05,0.07,0.07,37.06063325,30.59580371
20:02:06,0.07,0.07,24.54140572,27.4806671
20:02:07,0.07,0.07,37.24718929,9.177562053
20:02:08,0.07,0.07,6.08127844,15.6084315
20:02:09,0.07,0.07,9.26850799,21.5255051
20:02:10,0.07,0.07,21.64361101,27.70373959
20:02:11,0.07,0.07,24.76962927,21.49561702
20:02:12,0.07,0.07,18.69261241,24.65769179
20:02:13,0.07,0.07,33.79548787,15.36498473
20:02:14,0.07,0.07,28.23522617,28.00742067
20:02:15,0.07,0.00,27.9729904,0
20:02:16,0.07,0.07,15.5438477,6.200914646
20:02:17,0.07,0.07,24.91120474,15.49335155
20:02:18,0.07,0.07,27.89086471,28.7994453
20:02:19,0.07,0.07,21.96225343,24.80974145
20:02:20,0.07,0.07,21.69973233,24.77771829
20:02:21,0.07,0.07,21.80179354,9.314595454
20:02:22,0.07,0.07,12.62643973,31.33306101
20:02:23,0.07,0.07,21.95430004,44.1059421
20:02:24,0.07,0.07,18.94811104,25.21875996
20:02:25,0.07,0.07,28.26808597,31.75679012
20:02:26,0.07,0.07,12.60652372,28.19403525
20:02:27,0.07,0.07,34.64548816,22.00774138
20:02:28,0.07,0.07,9.414552464,43.9150082
20:02:29,0.07,0.07,25.24348227,22.3277003
20:02:30,0.07,0.07,18.98975948,22.02149502
20:02:31,0.07,0.07,22.21103464,15.80115302
20:02:32,0.06,0.07,34.08079644,22.40432534
20:02:33,0.07,0.07,15.7303185,16.48845027
20:02:34,0.07,0.00,22.24926738,0
20:02:35,0.06,0.00,31.80199047,0
20:02:36,0.07,0.00,28.61725792,0
20:02:37,0.07,0.00,18.96578964,0
20:02:38,0.06,0.00,22.17782434,0
20:02:39,0.07,0.00,12.734165,0
20:02:40,0.07,0.00,34.9857402,0
20:02:41,0.07,0.00,22.50695282,0
20:02:42,0.07,0.00,6.327887013,0
20:02:43,0.07,0.00,32.17383553,0
20:02:44,0.07,0.00,31.98839458,0
20:02:45,0.07,0.00,22.31528412,0
20:02:46,0.07,0.00,16.0531194,0
20:02:47,0.06,0.00,37.97087897,0
20:02:48,0.07,0.00,25.67860479,0
20:02:49,0.07,0.00,12.81344526,0
20:02:50,0.07,0.00,29.00755077,0
20:02:51,0.06,0.00,19.40108184,0
20:02:52,0.07,0.00,19.2740437,0
20:02:53,0.07,0.00,35.81650007,0
20:02:54,0.06,0.00,9.656722075,0
20:02:55,0.06,0.00,25.94869065,0
20:02:56,0.07,0.00,22.71512588,0
20:02:57,0.06,0.00,6.477641185,0
20:02:58,0.07,0.00,19.68562555,0
20:02:59,0.06,0.00,9.678295036,0
20:03:00,0.06,0.00,22.8865238,0
20:03:01,0.06,0.00,26.29566906,0
20:03:02,0.06,0.00,12.96188085,0
20:03:03,0.06,0.00,19.66955503,0
20:03:04,0.06,0.00,6.457004597,0
20:03:05,0.06,0.00,26.38001727,0
20:03:06,0.06,0.00,0,0
20:03:07,0.06,0.00,19.90167472,0
20:03:08,0.06,0.00,26.19296475,0
20:03:09,0.06,0.00,23.23095588,0
20:03:10,0.06,0.00,26.61714981,0
20:03:11,0.06,0.00,33.13654627,0
20:03:12,0.06,0.00,20.01953975,0
20:03:13,0.06,0.00,19.96642977,0
20:03:14,0.06,0.00,9.826348443,0
20:03:15,0.06,0.00,26.7959087,0
20:03:16,0.06,0.00,20.04875732,0
20:03:17,0.06,0.00,33.64167445,0
20:03:18,0.06,0.00,6.604173354,0
20:03:19,0.06,0.00,16.63266573,0
20:03:20,0.06,0.00,16.79634053,0
20:03:21,0.06,0.00,30.17403251,0
20:03:22,0.06,0.00,6.682284268,0
20:03:23,0.06,0.00,16.80768872,0
20:03:24,0.06,0.00,3.364342553,0
20:03:25,0.06,0.14,16.74841797,26.60073538
20:03:26,0.06,0.00,6.729883798,0
20:03:27,0.06,0.15,10.15227538,23.48703708
20:03:28,0.06,0.15,26.85668484,13.43135123
20:03:29,0.06,0.00,16.72940331,0
20:03:30,0.06,0.15,10.10235409,16.86749207
20:03:31,0.06,0.00,20.25484034,0
20:03:32,0.06,0.00,20.28966678,0
20:03:33,0.06,0.15,13.53995254,23.48910363
20:03:34,0.06,0.15,23.69850979,39.0443118
20:03:35,0.06,0.15,23.58326222,16.9168529
20:03:36,0.06,0.16,13.58733296,26.99879773
20:03:37,0.06,0.16,10.12763125,33.97080439
20:03:38,0.06,0.16,20.46028956,20.35038649
20:03:39,0.06,0.16,10.25410262,30.61746292
20:03:40,0.06,0.16,10.19282597,30.32071789
20:03:41,0.06,0.16,3.428627799,30.73280467
20:03:42,0.06,0.15,27.12740566,13.891807
20:03:43,0.06,0.15,23.89380628,34.21073185
20:03:44,0.06,0.16,17.19845012,20.46273211
20:03:45,0.06,0.15,17.05717042,17.19950585
20:03:46,0.06,0.15,17.18794113,20.50088986
20:03:47,0.06,0.15,3.390486498,17.38009613
20:03:48,0.06,0.15,3.425424186,13.62239039
20:03:49,0.06,0.15,0,13.81054705
20:03:50,0.06,0.15,13.72328354,24.02112606
20:03:51,0.06,0.15,20.77735215,17.16723491
20:03:52,0.06,0.15,23.98358499,10.27180544
20:03:53,0.06,0.15,13.77387944,27.30895858
20:03:54,0.06,0.15,10.216471,14.19687345
20:03:55,0.06,0.15,27.56106706,23.99239994
20:03:56,0.06,0.15,3.473719429,3.440377925
20:03:57,0.06,0.15,10.29259934,6.875502257
20:03:58,0.06,0.15,10.45839982,7.295331381
20:03:59,0.06,0.15,17.26638177,6.851410569
20:04:00,0.06,0.15,24.31579552,27.85206951
20:04:01,0.06,0.15,10.4669267,10.39895964
20:04:02,0.06,0.15,10.41610267,17.19046493
20:04:03,0.06,0.15,10.45765293,21.13401557
20:04:04,0.06,0.15,10.40814304,31.79330963
20:04:05,0.06,0.15,27.54930603,18.37191085
20:04:06,0.06,0.15,6.991251432,14.04254073
20:04:07,0.06,0.15,10.39735259,31.83819419
20:04:08,0.06,0.15,6.915953995,31.7067361
20:04:09,0.06,0.15,10.41645729,10.51492481
20:04:10,0.06,0.15,10.56977822,3.499523097
20:04:11,0.06,0.15,14.02322018,17.47013712
20:04:12,0.06,0.15,17.5702325,38.44673809
20:04:13,0.06,0.15,10.55214064,28.16440362
20:04:14,0.06,0.14,14.04435271,7.17378053
20:04:15,0.06,0.14,28.35339853,35.12331377
20:04:16,0.06,0.15,3.516717803,21.08136579
20:04:17,0.06,0.14,10.54310226,24.78972151
20:04:18,0.06,0.14,10.5744961,40.12601881
20:04:19,0.06,0.14,7.028842496,28.23554817
20:04:20,0.06,0.14,28.35716879,38.62507523
20:04:21,0.06,0.14,10.63693977,35.31304648
20:04:22,0.06,0.14,21.03180105,18.44332229
20:04:23,0.06,0.14,14.12435219,42.98045193
20:04:24,0.06,0.14,21.27825847,18.14045077
20:04:25,0.06,0.14,17.84023662,35.71282182
20:04:26,0.06,0.14,17.6942991,28.41930048
20:04:27,0.06,0.14,10.80576624,57.08362589
20:04:28,0.06,0.14,17.74038435,39.08149239
20:04:29,0.06,0.14,35.83116958,35.85555559
20:04:30,0.06,0.14,38.9971797,28.65026909
20:04:31,0.06,0.14,25.00112445,35.52356957
20:04:32,0.06,0.14,28.88918572,42.88442019
20:04:33,0.06,0.14,49.98923353,32.13593584
20:04:34,0.06,0.14,32.11226644,37.33418271
20:04:35,0.06,0.14,36.03973047,39.32255741
20:04:36,0.06,0.14,43.06046298,39.30348276
20:04:37,0.06,0.14,32.48412656,35.8981101
20:04:38,0.06,0.14,14.35486046,50.32136495
20:04:39,0.06,0.14,18.05924697,40.21330393
20:04:40,0.06,0.14,35.79084271,40.01607121
20:04:41,0.06,0.14,43.0727525,36.94062531
20:04:42,0.06,0.14,32.72092644,39.66746996
20:04:43,0.06,0.14,32.34775861,55.48393687
20:04:44,0.06,0.14,21.66784296,71.1032075
20:04:45,0.06,0.14,50.70718498,86.92660282
20:04:46,0.06,0.14,40.07644816,50.98321964
20:04:47,0.06,0.14,43.94904165,76.30138688
20:04:48,0.06,0.14,36.10941099,37.50991619
20:04:49,0.06,0.14,40.23163847,59.39659559
20:04:50,0.06,0.14,43.60002391,58.52972907
20:04:51,0.05,0.14,36.40803501,55.06020248
20:04:52,0.06,0.14,69.01451558,72.97565171
20:04:53,0.06,0.14,40.42480836,80.1195976
20:04:54,0.06,0.14,36.75798368,80.42836483
20:04:55,0.06,0.13,25.54911443,80.31535485
20:04:56,0.06,0.14,84.44213068,58.78236701
20:04:57,0.06,0.13,32.88952303,80.45104422
20:04:58,0.06,0.13,51.46562131,84.20672867
20:04:59,0.06,0.13,70.04215595,91.72316078
20:05:00,0.06,0.13,69.85856208,80.87054413
20:05:01,0.06,0.14,59.59162879,76.94510587
20:05:02,0.06,0.13,84.62993646,84.02204466
20:05:03,0.06,0.13,89.35127494,133.2956903
20:05:04,0.06,0.13,99.49988239,84.87424279
20:05:05,0.06,0.13,74.24844467,84.96032965
20:05:06,0.06,0.13,70.54678109,92.40459559
20:05:07,0.06,0.13,77.48834516,106.7143449
20:05:08,0.06,0.13,81.7090716,78.15470333
20:05:09,0.06,0.13,95.50597943,85.73642161
20:05:10,0.06,0.13,77.79297874,56.7861013
20:05:11,0.06,0.13,89.72125223,103.4261415
20:05:12,0.05,0.13,111.1225554,99.80762195
20:05:13,0.06,0.13,82.57576408,81.86519365
20:05:14,0.05,0.13,85.43380524,100.3145129
20:05:15,0.06,0.13,138.8833522,55.87075748
20:05:16,0.05,0.13,82.55016543,74.7394352
20:05:17,0.05,0.13,78.61622174,86.10348095
20:05:18,0.06,0.13,101.6737492,97.35327205
20:05:19,0.05,0.13,85.21032128,56.56068315
20:05:20,0.06,0.13,115.7988444,83.94244582
20:05:21,0.06,0.13,85.87953329,109.1936575
20:05:22,0.05,0.13,97.03068622,94.46922729
20:05:23,0.05,0.13,123.6961233,109.6618677
20:05:24,0.05,0.13,82.68098455,70.87665591
20:05:25,0.05,0.13,75.97760367,97.96440896
20:05:26,0.05,0.13,101.8293754,104.9586665
20:05:27,0.05,0.13,109.301624,94.4554215
20:05:28,0.05,0.13,83.30607126,107.1701609
20:05:29,0.05,0.13,109.4059416,94.44372911
20:05:30,0.05,0.13,107.0920337,98.49510063
20:05:31,0.05,0.13,68.46441947,98.44873214
20:05:32,0.05,0.13,68.50902745,109.503416
20:05:33,0.05,0.13,120.6078158,105.3684279
20:05:34,0.05,0.13,114.7107338,72.12320386
20:05:35,0.05,0.13,87.67121595,117.5775306
20:05:36,0.05,0.13,136.8706945,79.82315848
20:05:37,0.05,0.13,109.5977827,100.3132768
20:05:38,0.05,0.13,117.7107691,127.8445887
20:05:39,0.05,0.13,122.4431916,132.8346702
20:05:40,0.05,0.13,107.4357162,99.51238877
20:05:41,0.05,0.13,121.1478516,123.6105486
20:05:42,0.05,0.13,142.378672,154.1339829
20:05:43,0.05,0.13,110.691832,140.5559014
20:05:44,0.05,0.12,110.8476181,105.1780171
20:05:45,0.05,0.13,80.34320739,127.5219127
20:05:46,0.05,0.13,126.9210397,129.9402394
20:05:47,0.05,0.12,139.221693,123.358589
20:05:48,0.05,0.12,130.6410013,133.6693045
20:05:49,0.05,0.12,104.142203,127.6911124
20:05:50,0.05,0.12,127.0964062,108.1333488
20:05:51,0.05,0.12,100.1165593,164.1433563
20:05:52,0.05,0.12,128.0592398,116.4440397
20:05:53,0.05,0.12,135.3870066,127.8539178
20:05:54,0.05,0.12,155.0530273,96.86406283
20:05:55,0.05,0.12,138.4643983,170.4642207
20:05:56,0.05,0.12,124.4518908,85.09524969
20:05:57,0.05,0.12,139.5420205,139.1318812
20:05:58,0.05,0.12,140.0389952,124.3941961
20:05:59,0.05,0.12,159.802965,121.0194699
20:06:00,0.05,0.12,96.67555312,85.38279746
20:06:01,0.05,0.12,151.5495225,93.64346283
20:06:02,0.05,0.12,77.74179249,142.6480257
20:06:03,0.05,0.12,128.7557466,152.2004812
20:06:04,0.05,0.12,90.06471095,121.5300469
20:06:05,0.05,0.12,128.2545504,141.3828014
20:06:06,0.05,0.12,87.00754413,122.2084058
20:06:07,0.05,0.12,125.5009564,102.0624378
20:06:08,0.05,0.12,122.0908297,108.1905993
20:06:09,0.05,0.12,102.1800635,102.2965479
20:06:10,0.05,0.12,145.4841786,110.0961351
20:06:11,0.05,0.12,95.42616364,102.3419696
20:06:12,0.05,0.12,116.962174,110.9653505
20:06:13,0.05,0.12,113.7835199,162.1165172
20:06:14,0.05,0.12,110.272285,116.3260814
20:06:15,0.05,0.12,98.3775782,137.9165494
20:06:16,0.05,0.12,103.7525184,150.4963372
20:06:17,0.05,0.12,79.2872016,67.24063896
20:06:18,0.05,0.12,103.3838287,83.3496681
20:06:19,0.05,0.12,107.0126475,126.0829019
20:06:20,0.05,0.12,70.45504642,114.4896725
20:06:21,0.05,0.12,79.55356931,123.2236327
20:06:22,0.05,0.12,123.0625947,135.2182896
20:06:23,0.05,0.12,103.6494627,95.21947807
20:06:24,0.05,0.12,119.6303562,119.3307355
20:06:25,0.05,0.12,79.64077676,115.7694738
20:06:26,0.05,0.12,99.66309401,118.9451468
20:06:27,0.05,0.12,115.5496967,122.8343637
20:06:28,0.05,0.12,104.0446736,105.3187882
20:06:29,0.05,0.12,99.84384009,93.77846028
20:06:30,0.05,0.12,79.68505937,104.8283322
20:06:31,0.05,0.12,127.9977789,124.0826235
20:06:32,0.05,0.12,60.20636813,88.58601899
20:06:33,0.05,0.12,76.32773837,120.291091
20:06:34,0.05,0.12,100.0358156,80.57804829
20:06:35,0.05,0.12,92.52722752,117.3347902
20:06:36,0.05,0.12,112.0334971,100.7385295
20:06:37,0.05,0.12,79.43679149,94.65599852
20:06:38,0.05,0.12,97.15338238,117.3667699
20:06:39,0.05,0.12,120.8721185,117.2976901
20:06:40,0.05,0.12,77.16918598,89.04694748
20:06:41,0.05,0.12,104.5558657,109.2972863
20:06:42,0.05,0.12,52.50172529,81.5528287
20:06:43,0.05,0.12,116.3963774,93.95182653
20:06:44,0.05,0.12,116.4161407,81.16866271
20:06:45,0.05,0.11,77.56941184,97.91491846
20:06:46,0.05,0.11,92.66085184,109.6455912
20:06:47,0.05,0.11,101.8593113,110.2353978
20:06:48,0.05,0.12,76.75706323,85.94891946
20:06:49,0.05,0.11,88.51610072,110.7350097
20:06:50,0.05,0.11,77.03750811,81.94924551
20:06:51,0.05,0.11,81.3414979,112.6635903
20:06:52,0.05,0.11,72.98727113,99.04852975
20:06:53,0.05,0.11,97.74067749,89.98516721
20:06:54,0.05,0.11,126.5731633,65.20895396
20:06:55,0.05,0.11,119.0004459,102.4223026
20:06:56,0.05,0.11,122.4071823,111.0269419
20:06:57,0.05,0.11,144.0769681,100.9509236
20:06:58,0.05,0.11,102.1342359,77.79919806
20:06:59,0.05,0.11,102.2883704,77.72144519
20:07:00,0.05,0.11,98.22595837,53.85562456
20:07:01,0.05,0.11,127.0970319,118.491892
20:07:02,0.05,0.11,99.60353949,107.4826254
20:07:03,0.05,0.11,65.40001335,127.348691
20:07:04,0.05,0.11,82.19312627,94.99893219
20:07:05,0.05,0.11,127.278874,127.2499009
20:07:06,0.05,0.11,152.198124,107.5879548
20:07:07,0.05,0.11,107.8748494,153.9738322
20:07:08,0.05,0.11,118.6553379,103.8414136
20:07:09,0.05,0.11,70.7332655,116.1811282
20:07:10,0.05,0.11,98.55336358,94.87725577
20:07:11,0.05,0.11,141.0402451,136.7979834
20:07:12,0.05,0.11,103.1530555,118.7473846
20:07:13,0.05,0.11,90.56501146,119.9527438
20:07:14,0.05,0.11,82.94180948,112.3048438
20:07:15,0.05,0.11,98.91980068,99.68837317
20:07:16,0.05,0.11,75.08319425,141.6611694
20:07:17,0.05,0.11,104.5493778,125.0854349
20:07:18,0.05,0.11,103.1086507,92.19774267
20:07:19,0.05,0.11,91.41434085,130.9002682
20:07:20,0.05,0.11,66.48214506,108.9027207
20:07:21,0.05,0.11,129.3268891,122.3834876
20:07:22,0.05,0.11,108.1278612,117.1658348
20:07:23,0.05,0.11,112.7699505,87.85058675
20:07:24,0.05,0.11,83.05650879,109.0711071
20:07:25,0.05,0.11,121.1984356,83.64248286
20:07:26,0.05,0.11,96.30896729,117.6224355
20:07:27,0.05,0.11,117.541506,122.6665808
20:07:28,0.05,0.11,79.64816132,117.75348
20:07:29,0.05,0.11,113.0361355,92.29303122
20:07:30,0.05,0.11,91.53432545,100.3791471
20:07:31,0.05,0.11,101.0798771,147.3406131
20:07:32,0.05,0.11,104.7928318,122.1442403
20:07:33,0.05,0.11,134.5250596,126.9591863
20:07:34,0.05,0.11,87.94343574,109.5301616
20:07:35,0.05,0.11,105.3309198,128.2753055
20:07:36,0.05,0.11,139.4540718,105.40549
20:07:37,0.05,0.11,126.6840998,106.0071259
20:07:38,0.05,0.11,110.4140689,131.6475437
20:07:39,0.05,0.11,97.23300015,113.3107408
20:07:40,0.05,0.11,105.420607,106.2207174
20:07:41,0.05,0.11,89.02060859,123.1306365
20:07:42,0.05,0.11,105.6221068,80.5486527
20:07:43,0.05,0.11,105.6926107,120.3527716
20:07:44,0.05,0.11,142.7572735,130.3292293
20:07:45,0.05,0.11,85.2860237,135.9886039
20:07:46,0.05,0.11,106.3462704,140.5380229
20:07:47,0.05,0.11,131.6883945,158.5542577
20:07:48,0.05,0.11,114.9785445,115.9344862
20:07:49,0.05,0.11,114.8502012,136.274642
20:07:50,0.05,0.11,132.9719468,123.8505337
20:07:51,0.05,0.11,114.7738747,123.614235
20:07:52,0.05,0.11,77.47645266,132.2100464
20:07:53,0.05,0.10,85.57581573,127.9236194
20:07:54,0.05,0.10,110.8091382,137.258531
20:07:55,0.05,0.10,107.3648468,112.2791971
20:07:56,0.05,0.10,98.00288567,74.56091606
20:07:57,0.05,0.11,102.6873848,146.648324
20:07:58,0.05,0.10,94.48370991,120.9456492
20:07:59,0.05,0.10,102.118567,99.30777525
20:08:00,0.05,0.10,72.65367513,173.6821699
20:08:01,0.05,0.10,90.35989359,134.686448
20:08:02,0.05,0.10,107.0846298,161.8085682
20:08:03,0.05,0.10,145.9248114,117.4387258
20:08:04,0.05,0.10,60.21313944,147.1416477
20:08:05,0.05,0.10,90.87191216,121.7227093
20:08:06,0.05,0.10,94.31134,120.3832483
20:08:07,0.05,0.10,143.5863821,135.0715597
20:08:08,0.05,0.10,99.15624601,88.5110281
20:08:09,0.05,0.10,99.51434559,147.4465761
20:08:10,0.05,0.10,64.86814517,126.2663225
20:08:11,0.05,0.10,77.72349922,147.1384978
20:08:12,0.05,0.10,99.26779714,109.0201049
20:08:13,0.05,0.10,94.92446738,108.661683
20:08:14,0.05,0.10,91.37630785,135.1999259
20:08:15,0.05,0.10,47.62971359,91.70501563
20:08:16,0.05,0.10,87.00412274,126.8749429
20:08:17,0.05,0.10,73.66363968,117.3976065
20:08:18,0.05,0.10,96.051003,149.6131953
20:08:19,0.05,0.10,52.41216159,118.8567865
20:08:20,0.05,0.10,105.0170344,109.6705189
20:08:21,0.05,0.10,52.53132001,91.69745066
20:08:22,0.05,0.10,101.1872824,118.5658088
20:08:23,0.05,0.10,77.3077641,144.030379
20:08:24,0.05,0.10,30.53350099,84.24571065
20:08:25,0.05,0.10,61.00568668,127.4465094
20:08:26,0.04,0.10,83.50899374,79.20503359
20:08:27,0.05,0.10,39.53650255,92.97958001
20:08:28,0.05,0.10,69.98349113,132.5849624
20:08:29,0.05,0.10,83.89188941,97.43029057
20:08:30,0.04,0.10,74.53350188,115.1795608
20:08:31,0.05,0.10,114.1321779,111.3503337
20:08:32,0.05,0.10,70.0753592,85.26074698
20:08:33,0.05,0.10,79.81864569,111.2192462
20:08:34,0.05,0.10,66.23140975,155.9024893
20:08:35,0.05,0.10,53.12428774,142.0579165
20:08:36,0.05,0.10,84.19016454,89.40530187
20:08:37,0.05,0.10,92.15387616,107.0536643
20:08:38,0.05,0.10,70.06911113,137.6820407
20:08:39,0.05,0.10,130.9532376,119.1337087
20:08:40,0.05,0.10,30.6307929,145.4957334
20:08:41,0.04,0.10,111.2450408,139.2603538
20:08:42,0.05,0.10,57.26217986,107.6043106
20:08:43,0.05,0.10,128.7372108,126.095635
20:08:44,0.05,0.10,102.3937069,86.03219135
20:08:45,0.04,0.10,133.1533678,116.6306571
20:08:46,0.05,0.10,89.63071075,108.4857986
20:08:47,0.04,0.10,79.94326022,107.8782251
20:08:48,0.04,0.10,75.98504769,113.7367173
20:08:49,0.04,0.10,120.4560051,131.2191803
20:08:50,0.05,0.10,89.19002737,117.4595056
20:08:51,0.04,0.10,75.61310067,89.92044786
20:08:52,0.04,0.10,71.13391632,143.1265858
20:08:53,0.04,0.10,89.6899974,136.5810361
20:08:54,0.05,0.10,93.54720733,126.6712649
20:08:55,0.04,0.10,116.1299865,134.3669332
20:08:56,0.04,0.10,97.82405474,169.5850923
20:08:57,0.04,0.10,130.1804945,128.0480437
20:08:58,0.04,0.10,139.3412117,127.7367886
20:08:59,0.04,0.10,161.3952974,129.4775232
20:09:00,0.04,0.10,131.0911378,128.2299209
20:09:01,0.05,0.10,90.3041437,137.0063096
20:09:02,0.05,0.09,76.54290992,126.1189855
20:09:03,0.04,0.10,175.8105585,160.2089035
20:09:04,0.04,0.09,125.1617579,163.5331686
20:09:05,0.04,0.09,135.4291033,157.6551708
20:09:06,0.04,0.09,148.5539101,198.2405293
20:09:07,0.05,0.09,117.8260161,172.0775608
20:09:08,0.04,0.09,114.0908764,179.815342
20:09:09,0.04,0.10,135.6229668,142.9662993
20:09:10,0.04,0.09,90.89418205,138.967532
20:09:11,0.04,0.09,167.5744258,144.239521
20:09:12,0.04,0.09,164.020224,148.5394997
20:09:13,0.04,0.09,102.9358458,125.6473356
20:09:14,0.04,0.09,121.8055139,120.7383552
20:09:15,0.04,0.09,109.7875443,138.6115787
20:09:16,0.04,0.09,90.49495052,134.476599
20:09:17,0.04,0.09,123.4339643,191.504744
20:09:18,0.04,0.09,104.6627736,163.5091192
20:09:19,0.04,0.09,169.0431355,149.9641135
20:09:20,0.04,0.09,104.8304612,183.4805593
20:09:21,0.04,0.09,145.8877665,158.6105368
20:09:22,0.04,0.09,86.9144066,179.7578181
20:09:23,0.04,0.09,100.1454483,154.0961351
20:09:24,0.04,0.09,123.8270364,140.3340745
20:09:25,0.04,0.09,129.1695696,171.0249451
20:09:26,0.05,0.09,104.9720036,156.8635531
20:09:27,0.04,0.09,101.2128708,159.8459511
20:09:28,0.04,0.09,119.4053474,150.6301108
20:09:29,0.04,0.09,134.3303452,166.5222597
20:09:30,0.04,0.09,64.69709944,169.4970015